sat.trackr.live / text

‹ back to catalog

STARLINK-11411 [DTC]

NORAD 62018 · 2024-213L

PAYLOAD ACTIVE UNKNOWN

§ Identity

Operator
Country
US
Launch date
2024-11-18
Launch site
AFWTR
Launch vehicle
Mass (kg)
RCS (m²)

Purposes: comms

External: N2YO · Heavens-Above · Gunter

§ Orbital elements

Epoch: 2026-05-25T01:59:34.256832Z

Period
91.73 min
Inclination
53.1578°
Eccentricity
0.0000846
Mean motion
15.69774482 rev/d
Perigee alt
359.0 km
Apogee alt
360.1 km
Semi-major
6,737.7 km
B*
1.5553e-3
RAAN
24.6714°
Arg perigee
75.9688°
Mean anomaly
284.1424°
Rev number
8,691

§ Raw data

STARLINK-11411 [DTC]1 62018U 24213L   26145.08303538  .00192788  00000+0  15553-2 0  99922 62018  53.1578  24.6714 0000846  75.9688 284.1424 15.69774482 86915

JSON: /api/v1/satellites/62018 · /tle

For live sub-satellite position, see the globe view (requires WebGL).

§ Visibility from observer

Set your observer location to see the next 7 days of passes ≥ 10°. The values pass through the URL so the page stays shareable.

No JS? Fill the form by hand. The geolocation button needs JavaScript.